This demonstration page uses our WeatherBlox Daily Observations layout. Learn more.

Left ArrowRight Arrow

30.21309, -93.2044

Hourly Observations for July 31, 2019

Temp ( °F °C ) Dew Point ( °F °C ) Humidity (%) Winds ( mph kmh ) Pressure ( in mb ) Visibility ( mi km ) Precip ( " mm )
12:15 am 00:15 Clear 72 22.3 72 22.1 99 99 E 7 11 30.01 1016 7 11 0.00 0.00
12:55 am 00:55 Partly Cloudy 72 22.2 72 22 99 99 E 13 20 30.02 1017 10 16 0.00 0.00
1:15 am 01:15 Partly Cloudy 72 22.1 71 21.8 98 98 E 12 19 30.02 1017 10 16 0.00 0.00
1:35 am 01:35 Partly Cloudy 72 22 71 21.7 98 98 E 9 15 30.02 1017 10 16 0.00 0.00
1:55 am 01:55 Partly Cloudy 72 22 71 21.7 98 98 E 10 17 30.02 1017 10 16 0.00 0.00
2:15 am 02:15 Clear 72 22 71 21.6 98 98 Calm 30.02 1017 10 16 0.00 0.00
2:35 am 02:35 Clear 72 22.1 71 21.7 98 98 Calm 30.02 1017 10 16 0.00 0.00
2:55 am 02:55 Clear 72 22 71 21.6 98 98 Calm 30.02 1017 10 16 0.00 0.00
3:15 am 03:15 Clear 72 22.1 71 21.7 98 98 Calm 30.02 1017 10 16 0.00 0.00
3:35 am 03:35 Clear 72 22 71 21.6 98 98 Calm 30.02 1017 10 16 0.00 0.00
3:55 am 03:55 Clear 72 22 71 21.6 98 98 NNE 7 11 30.02 1017 10 16 0.00 0.00
4:15 am 04:15 Clear 71 21.9 71 21.5 98 98 NNE 5 7 30.02 1017 10 16 0.00 0.00
4:35 am 04:35 Clear 72 22 71 21.7 98 98 N 5 7 30.02 1017 10 16 0.00 0.00
4:55 am 04:55 Clear 71 21.7 71 21.5 99 99 N 7 11 30.02 1017 10 16 0.00 0.00
5:15 am 05:15 Clear 71 21.7 71 21.5 99 99 N 3 6 30.02 1017 10 16 0.00 0.00
5:35 am 05:35 Clear 71 21.7 71 21.5 99 99 N 3 6 30.02 1017 10 16 0.00 0.00
6:00 am 06:00 Mostly Clear 72 22 70 21 94 94 Calm 30.02 1017 10 16 0.00 0.00
6:50 am 06:50 Mostly Sunny 72 22 72 22 100 100 Calm 30.05 1018 10 16 0.00 0.00
7:55 am 07:55 Mostly Sunny 75 24 73 23 94 94 Calm 30.06 1018 10 16 0.00 0.00
8:55 am 08:55 Mostly Sunny 79 26 75 24 89 89 Calm 30.07 1018 10 16 0.00 0.00
9:52 am 09:52 Mostly Sunny 82 28 77 25 84 84 E 3 6 30.09 1019 10 16 0.00 0.00
10:45 am 10:45 Mostly Cloudy 82 28 75 24 79 79 undefined N/A 30.09 1019 10 16 0.00 0.00
11:50 am 11:50 Mostly Cloudy 86 30 75 24 70 70 NNE 3 6 30.07 1018 10 16 0.00 0.00
12:53 pm 12:53 Mostly Cloudy 88 31 75 24 66 66 Calm 30.07 1018 10 16 0.00 0.00
1:45 pm 13:45 Mostly Cloudy 88 31 73 23 62 62 Calm 30.05 1018 10 16 0.00 0.00
2:45 pm 14:45 Mostly Cloudy 90 32 75 24 63 63 N 3 6 30.03 1017 10 16 0.00 0.00
3:55 pm 15:55 Mostly Cloudy 88 31 75 24 66 66 E 7 11 30.02 1017 10 16 0.00 0.00
4:55 pm 16:55 Mostly Cloudy 88 31 73 23 62 62 Calm 30.00 1016 10 16 0.00 0.00
5:55 pm 17:55 Mostly Cloudy 90 32 73 23 59 59 E 7 11 29.99 1016 10 16 0.00 0.00
6:55 pm 18:55 Partly Cloudy 86 30 75 24 70 70 SSW 10 17 29.99 1016 10 16 0.00 0.00
7:55 pm 19:55 Partly Cloudy 84 29 77 25 79 79 SSW 6 9 30.00 1016 10 16 0.00 0.00
8:47 pm 20:47 Mostly Clear 82 28 77 25 84 84 SE 6 9 30.01 1016 10 16 0.00 0.00
9:55 pm 21:55 Mostly Clear 79 26 77 25 94 94 ESE 7 11 30.02 1017 10 16 0.00 0.00
10:15 pm 22:15 Partly Cloudy 78 25.6 76 24.5 94 94 ESE 6 9 30.02 1017 10 16 0.00 0.00
10:35 pm 22:35 Partly Cloudy 79 26 76 24.6 92 92 ESE 7 11 30.01 1016 10 16 0.00 0.00
10:55 pm 22:55 Clear 79 26 76 24.6 92 92 SE 5 7 30.01 1016 10 16 0.00 0.00
11:15 pm 23:15 Clear 78 25.5 76 24.6 95 95 Calm 30.02 1017 10 16 0.00 0.00
11:35 pm 23:35 Clear 77 25.1 76 24.5 96 96 SE 5 7 30.02 1017 10 16 0.00 0.00
11:55 pm 23:55 Clear 78 25.5 76 24.7 95 95 ESE 6 9 30.02 1017 10 16 0.00 0.00

Powered by AerisWeather